| time (UTC) | temp F | wind direction | speed knots | gust knots | rain 1hr in | rain 24hr in | rain mn in | humidity % | barometer mb |
| 20260506192624 | 55 | 73 | 6.1 | 8.7 | 0.01 | 0.08 | 0.08 | 94 | 1007.0 |
| 20260506192116 | 55 | 57 | 7.8 | 13.0 | 0.02 | 0.08 | 0.08 | 94 | 1006.9 |
| 20260506191610 | 55 | 55 | 9.6 | 13.0 | 0.02 | 0.08 | 0.08 | 94 | 1007.1 |
| 20260506191104 | 55 | 59 | 10.4 | 13.0 | 0.03 | 0.08 | 0.08 | 94 | 1007.2 |
| 20260506190558 | 55 | 53 | 11.3 | 13.0 | 0.03 | 0.08 | 0.08 | 94 | 1007.3 |
| 20260506190320 | 55 | 50 | 11.3 | 13.0 | 0.03 | 0.08 | 0.08 | 94 | 1007.4 |
| 20260506185546 | 55 | 57 | 11.3 | 13.9 | 0.04 | 0.08 | 0.08 | 94 | 1007.5 |
| 20260506185041 | 55 | 59 | 11.3 | 13.9 | 0.04 | 0.08 | 0.08 | 94 | 1007.4 |
| 20260506184534 | 55 | 53 | 11.3 | 13.0 | 0.05 | 0.08 | 0.08 | 94 | 1007.6 |
| 20260506184028 | 55 | 55 | 11.3 | 14.8 | 0.05 | 0.08 | 0.08 | 94 | 1007.7 |
| 20260506183522 | 55 | 63 | 11.3 | 14.8 | 0.06 | 0.08 | 0.08 | 94 | 1007.4 |
| 20260506183016 | 55 | 54 | 11.3 | 14.8 | 0.05 | 0.07 | 0.07 | 93 | 1007.5 |
| 20260506182512 | 55 | 53 | 11.3 | 14.8 | 0.06 | 0.07 | 0.07 | 93 | 1007.6 |
| 20260506182004 | 55 | 40 | 10.4 | 13.9 | 0.05 | 0.06 | 0.06 | 93 | 1007.6 |
| 20260506181457 | 55 | 51 | 8.7 | 13.0 | 0.06 | 0.06 | 0.06 | 93 | 1007.7 |
| 20260506180952 | 55 | 54 | 6.1 | 11.3 | 0.05 | 0.05 | 0.05 | 93 | 1007.8 |
| 20260506180446 | 55 | 57 | 3.5 | 7.0 | 0.05 | 0.05 | 0.05 | 92 | 1007.8 |
| 20260506175942 | 55 | 37 | 3.5 | 7.0 | 0.04 | 0.04 | 0.05 | 91 | 1007.8 |
| 20260506175434 | 56 | 32 | 2.6 | 4.3 | 0.04 | 0.04 | 0.04 | 90 | 1007.9 |
| 20260506174928 | 56 | 42 | 2.6 | 4.3 | 0.03 | 0.03 | 0.04 | 90 | 1008.1 |
| 20260506174915 | 56 | 34 | 2.6 | 8.7 | 0.03 | 0.03 | 0.03 | 90 | 1008.3 |
| 20260506173917 | 56 | 333 | 3.5 | 8.7 | 0.03 | 0.03 | 0.03 | 90 | 1008.5 |
| 20260506173411 | 56 | 53 | 5.2 | 10.4 | 0.02 | 0.02 | 0.02 | 89 | 1008.6 |
| 20260506172904 | 57 | 67 | 6.1 | 10.4 | 0.02 | 0.02 | 0.02 | 89 | 1008.8 |
| 20260506172357 | 57 | 62 | 7.0 | 10.4 | 0.01 | 0.01 | 0.01 | 89 | 1008.9 |
| 20260506172121 | 57 | 58 | 7.0 | 10.4 | 0.00 | 0.00 | 0.00 | 89 | 1008.8 |
| 20260506171349 | 57 | 50 | 7.0 | 12.2 | 0.00 | 0.00 | 0.00 | 89 | 1008.8 |
| 20260506170849 | 57 | 60 | 6.1 | 12.2 | 0.00 | 0.00 | 0.00 | 89 | 1008.9 |
| 20260506170607 | 57 | 60 | 4.3 | 9.6 | 0.00 | 0.00 | 0.00 | 89 | 1009.0 |
| 20260506165850 | 57 | 68 | 4.3 | 7.0 | 0.00 | 0.00 | 0.00 | 88 | 1009.1 |
| 20260506165612 | 57 | 68 | 4.3 | 7.0 | 0.00 | 0.00 | 0.00 | 88 | 1009.1 |
| 20260506164849 | 57 | 60 | 3.5 | 6.1 | 0.00 | 0.00 | 0.00 | 87 | 1009.0 |
| 20260506164349 | 58 | 77 | 3.5 | 7.0 | 0.00 | 0.00 | 0.00 | 87 | 1009.2 |
| 20260506163850 | 58 | 70 | 1.7 | 7.0 | 0.00 | 0.00 | 0.00 | 87 | 1009.3 |
| 20260506163613 | 58 | 96 | 1.7 | 3.5 | 0.00 | 0.00 | 0.00 | 87 | 1009.3 |
| 20260506162848 | 58 | 66 | 2.6 | 4.3 | 0.00 | 0.00 | 0.00 | 87 | 1009.2 |
| 20260506162349 | 58 | 82 | 2.6 | 4.3 | 0.00 | 0.00 | 0.00 | 87 | 1009.2 |
| 20260506161847 | 58 | 67 | 3.5 | 6.1 | 0.00 | 0.00 | 0.00 | 87 | 1009.2 |
| 20260506161347 | 58 | 63 | 3.5 | 6.1 | 0.00 | 0.00 | 0.00 | 87 | 1009.3 |
| 20260506160847 | 58 | 75 | 3.5 | 6.1 | 0.00 | 0.00 | 0.00 | 86 | 1009.4 |
| 20260506160348 | 58 | 56 | 2.6 | 5.2 | 0.00 | 0.00 | 0.00 | 86 | 1009.4 |
| 20260506155844 | 58 | 77 | 2.6 | 5.2 | 0.00 | 0.00 | 0.00 | 86 | 1009.6 |
| 20260506155346 | 58 | 71 | 1.7 | 3.5 | 0.00 | 0.00 | 0.00 | 86 | 1009.7 |
| 20260506155103 | 58 | 77 | 1.7 | 3.5 | 0.00 | 0.00 | 0.00 | 86 | 1009.7 |
| 20260506154603 | 58 | 74 | 0.9 | 4.3 | 0.00 | 0.00 | 0.00 | 86 | 1009.7 |
| 20260506153839 | 58 | 92 | 1.7 | 4.3 | 0.00 | 0.00 | 0.00 | 87 | 1009.9 |
| 20260506153340 | 58 | 101 | 1.7 | 3.5 | 0.00 | 0.00 | 0.00 | 87 | 1009.8 |
| 20260506152837 | 58 | 76 | 0.9 | 3.5 | 0.00 | 0.00 | 0.00 | 87 | 1009.6 |
| 20260506152826 | 58 | 90 | 2.6 | 5.2 | 0.00 | 0.00 | 0.00 | 87 | 1009.5 |
| 20260506151836 | 58 | 51 | 3.5 | 7.0 | 0.00 | 0.00 | 0.00 | 88 | 1009.5 |
| 20260506151335 | 58 | 49 | 4.3 | 7.0 | 0.00 | 0.00 | 0.00 | 88 | 1009.6 |
| 20260506150834 | 57 | 54 | 3.5 | 7.0 | 0.00 | 0.00 | 0.00 | 88 | 1009.6 |
| 20260506150558 | 57 | 55 | 3.5 | 5.2 | 0.00 | 0.00 | 0.00 | 88 | 1009.5 |
| 20260506150052 | 57 | 55 | 3.5 | 4.3 | 0.00 | 0.00 | 0.00 | 88 | 1009.7 |
| 20260506145334 | 57 | 46 | 3.5 | 4.3 | 0.00 | 0.00 | 0.00 | 88 | 1009.7 |
| 20260506144836 | 57 | 59 | 3.5 | 6.1 | 0.00 | 0.00 | 0.00 | 88 | 1009.9 |
| 20260506144332 | 58 | 81 | 3.5 | 7.0 | 0.00 | 0.00 | 0.00 | 87 | 1009.9 |
| 20260506143926 | 58 | 67 | 4.3 | 9.6 | 0.00 | 0.00 | 0.00 | 88 | 1010.0 |
| 20260506142830 | 58 | 59 | 7.0 | 9.6 | 0.00 | 0.00 | 0.00 | 87 | 1010.0 |
| 20260506142333 | 58 | 74 | 7.0 | 9.6 | 0.00 | 0.00 | 0.00 | 88 | 1009.9 |
| 20260506142053 | 58 | 73 | 7.8 | 10.4 | 0.00 | 0.00 | 0.00 | 88 | 1009.9 |
| 20260506141330 | 58 | 57 | 8.7 | 11.3 | 0.00 | 0.00 | 0.00 | 88 | 1010.0 |
| 20260506140833 | 58 | 65 | 7.8 | 11.3 | 0.00 | 0.00 | 0.00 | 88 | 1010.1 |
| 20260506140331 | 58 | 59 | 6.1 | 10.4 | 0.00 | 0.00 | 0.00 | 88 | 1010.2 |
| 20260506140314 | 58 | 71 | 6.1 | 11.3 | 0.00 | 0.00 | 0.00 | 88 | 1010.3 |
| 20260506135332 | 58 | 63 | 7.8 | 11.3 | 0.00 | 0.00 | 0.00 | 88 | 1010.1 |
| 20260506134831 | 58 | 79 | 9.6 | 11.3 | 0.00 | 0.00 | 0.00 | 88 | 1010.0 |
| 20260506134554 | 58 | 71 | 9.6 | 12.2 | 0.00 | 0.00 | 0.00 | 88 | 1010.1 |
| 20260506133830 | 58 | 65 | 8.7 | 12.2 | 0.00 | 0.00 | 0.00 | 88 | 1010.0 |
| 20260506133331 | 58 | 74 | 7.8 | 11.3 | 0.00 | 0.00 | 0.00 | 88 | 1009.9 |
| 20260506132829 | 58 | 75 | 7.0 | 9.6 | 0.00 | 0.00 | 0.00 | 88 | 1009.8 |
| 20260506132328 | 58 | 82 | 5.2 | 8.7 | 0.00 | 0.00 | 0.00 | 87 | 1009.7 |
| 20260506131831 | 58 | 65 | 4.3 | 8.7 | 0.00 | 0.00 | 0.00 | 87 | 1009.8 |
| 20260506131329 | 58 | 80 | 3.5 | 8.7 | 0.00 | 0.00 | 0.00 | 86 | 1009.7 |
| 20260506130827 | 59 | 90 | 1.7 | 8.7 | 0.00 | 0.00 | 0.00 | 86 | 1009.8 |
| 20260506130545 | 59 | 87 | 0.9 | 5.2 | 0.00 | 0.00 | 0.00 | 86 | 1009.7 |
| 20260506125828 | 59 | 92 | 1.7 | 3.5 | 0.00 | 0.00 | 0.00 | 87 | 1009.8 |
| 20260506125327 | 58 | 103 | 2.6 | 6.1 | 0.00 | 0.00 | 0.00 | 87 | 1010.0 |
| 20260506124828 | 58 | 87 | 3.5 | 7.0 | 0.00 | 0.00 | 0.00 | 87 | 1010.1 |
| 20260506124325 | 58 | 77 | 4.3 | 7.0 | 0.00 | 0.00 | 0.00 | 87 | 1010.2 |
| 20260506123824 | 58 | 92 | 4.3 | 7.0 | 0.00 | 0.00 | 0.00 | 87 | 1010.3 |
| 20260506123323 | 58 | 58 | 4.3 | 8.7 | 0.00 | 0.00 | 0.00 | 87 | 1010.4 |
| 20260506122824 | 58 | 65 | 5.2 | 8.7 | 0.00 | 0.00 | 0.00 | 87 | 1010.4 |
| 20260506122322 | 58 | 70 | 5.2 | 7.8 | 0.00 | 0.00 | 0.00 | 88 | 1010.4 |
| 20260506122054 | 58 | 63 | 6.1 | 8.7 | 0.00 | 0.00 | 0.00 | 87 | 1010.4 |
| 20260506121321 | 58 | 70 | 5.2 | 9.6 | 0.00 | 0.00 | 0.00 | 87 | 1010.5 |
| 20260506121044 | 58 | 70 | 3.5 | 9.6 | 0.00 | 0.00 | 0.00 | 87 | 1010.4 |
| 20260506120321 | 58 | 73 | 3.5 | 7.0 | 0.00 | 0.00 | 0.00 | 87 | 1010.3 |
| 20260506115816 | 58 | 94 | 3.5 | 7.0 | 0.00 | 0.00 | 0.00 | 88 | 1010.3 |
| 20260506115308 | 58 | 63 | 3.5 | 6.1 | 0.00 | 0.00 | 0.00 | 88 | 1010.2 |
| 20260506114803 | 58 | 65 | 3.5 | 6.1 | 0.00 | 0.00 | 0.00 | 88 | 1010.2 |
| 20260506114256 | 58 | 74 | 4.3 | 7.0 | 0.00 | 0.00 | 0.00 | 87 | 1010.3 |
| 20260506113751 | 58 | 64 | 4.3 | 7.8 | 0.00 | 0.00 | 0.00 | 87 | 1010.3 |
| 20260506113246 | 58 | 78 | 3.5 | 7.8 | 0.00 | 0.00 | 0.00 | 87 | 1010.3 |
| 20260506112739 | 59 | 60 | 2.6 | 5.2 | 0.00 | 0.00 | 0.00 | 87 | 1010.3 |
| 20260506112233 | 59 | 84 | 1.7 | 6.1 | 0.00 | 0.00 | 0.00 | 88 | 1010.3 |
| 20260506111727 | 58 | 91 | 1.7 | 6.1 | 0.00 | 0.00 | 0.00 | 88 | 1010.2 |
| 20260506111221 | 58 | 92 | 2.6 | 7.0 | 0.00 | 0.00 | 0.00 | 89 | 1010.3 |
| 20260506110716 | 57 | 109 | 3.5 | 7.8 | 0.00 | 0.00 | 0.00 | 90 | 1010.3 |
| 20260506110208 | 57 | 53 | 6.1 | 11.3 | 0.00 | 0.00 | 0.00 | 90 | 1010.2 |
| 20260506105703 | 57 | 80 | 7.8 | 11.3 | 0.00 | 0.00 | 0.00 | 89 | 1010.1 |
| 20260506105417 | 57 | 75 | 7.8 | 12.2 | 0.00 | 0.00 | 0.00 | 90 | 1010.1 |
| 20260506104650 | 57 | 76 | 7.0 | 11.3 | 0.00 | 0.00 | 0.00 | 90 | 1010.2 |
| 20260506104145 | 57 | 75 | 5.2 | 10.4 | 0.00 | 0.00 | 0.00 | 91 | 1010.3 |
| 20260506103639 | 57 | 94 | 3.5 | 8.7 | 0.00 | 0.00 | 0.00 | 91 | 1010.3 |
| 20260506103133 | 56 | 103 | 2.6 | 7.0 | 0.00 | 0.00 | 0.00 | 91 | 1010.3 |
| 20260506102847 | 56 | 94 | 1.7 | 6.1 | 0.00 | 0.00 | 0.00 | 91 | 1010.2 |
| 20260506102121 | 56 | 101 | 1.7 | 6.1 | 0.00 | 0.00 | 0.00 | 91 | 1010.2 |
| 20260506101615 | 56 | 105 | 3.5 | 8.7 | 0.00 | 0.00 | 0.00 | 91 | 1010.2 |
| 20260506101108 | 56 | 107 | 4.3 | 8.7 | 0.00 | 0.00 | 0.00 | 91 | 1010.0 |
| 20260506100603 | 56 | 76 | 5.2 | 9.6 | 0.00 | 0.00 | 0.00 | 91 | 1010.0 |
| 20260506100057 | 56 | 97 | 4.3 | 9.6 | 0.00 | 0.00 | 0.00 | 91 | 1010.1 |
| 20260506095553 | 56 | 95 | 3.5 | 7.8 | 0.00 | 0.00 | 0.00 | 91 | 1010.1 |
| 20260506095045 | 56 | 92 | 4.3 | 8.7 | 0.00 | 0.00 | 0.00 | 91 | 1010.1 |
| 20260506094542 | 56 | 101 | 4.3 | 8.7 | 0.00 | 0.00 | 0.00 | 91 | 1010.0 |
| 20260506094042 | 56 | 82 | 3.5 | 7.0 | 0.00 | 0.00 | 0.00 | 91 | 1010.0 |
| 20260506093542 | 56 | 97 | 3.5 | 7.0 | 0.00 | 0.00 | 0.00 | 91 | 1010.0 |
| 20260506093530 | 56 | 71 | 4.3 | 7.8 | 0.00 | 0.00 | 0.00 | 91 | 1009.9 |
| 20260506092802 | 56 | 67 | 5.2 | 8.7 | 0.00 | 0.00 | 0.00 | 90 | 1009.9 |
| 20260506092040 | 56 | 79 | 5.2 | 8.7 | 0.00 | 0.00 | 0.00 | 90 | 1010.1 |
| 20260506091536 | 56 | 57 | 3.5 | 7.8 | 0.00 | 0.00 | 0.00 | 91 | 1010.2 |
| 20260506091037 | 56 | 94 | 2.6 | 6.1 | 0.00 | 0.00 | 0.00 | 90 | 1010.0 |
| 20260506090536 | 56 | 98 | 2.6 | 7.8 | 0.00 | 0.00 | 0.00 | 90 | 1010.2 |
| 20260506090035 | 56 | 77 | 2.6 | 7.8 | 0.00 | 0.00 | 0.00 | 90 | 1010.2 |
| 20260506085535 | 56 | 80 | 3.5 | 8.7 | 0.00 | 0.00 | 0.00 | 90 | 1010.2 |
| 20260506085035 | 56 | 96 | 5.2 | 12.2 | 0.00 | 0.00 | 0.00 | 90 | 1010.2 |
| 20260506084536 | 56 | 83 | 5.2 | 12.2 | 0.00 | 0.00 | 0.00 | 91 | 1010.3 |
| 20260506084031 | 56 | 80 | 3.5 | 8.7 | 0.00 | 0.00 | 0.00 | 91 | 1010.3 |
| 20260506083532 | 55 | 80 | 1.7 | 7.0 | 0.00 | 0.00 | 0.00 | 91 | 1010.3 |
| 20260506083035 | 55 | 79 | 1.7 | 6.1 | 0.00 | 0.00 | 0.00 | 91 | 1010.3 |
| 20260506082803 | 55 | 85 | 0.9 | 6.1 | 0.00 | 0.00 | 0.00 | 91 | 1010.3 |
| 20260506082029 | 55 | 96 | 0.0 | 2.6 | 0.00 | 0.00 | 0.00 | 90 | 1010.4 |
| 20260506081527 | 55 | 96 | 0.9 | 2.6 | 0.00 | 0.00 | 0.00 | 90 | 1010.3 |
| 20260506081022 | 55 | 69 | 2.6 | 4.3 | 0.00 | 0.00 | 0.00 | 90 | 1010.3 |
| 20260506080515 | 56 | 67 | 3.5 | 6.1 | 0.00 | 0.00 | 0.00 | 90 | 1010.4 |
| 20260506073506 | 56 | 76 | 5.2 | 8.7 | 0.00 | 0.00 | 0.00 | 89 | 1010.4 |
| 20260506073003 | 56 | 69 | 5.2 | 8.7 | 0.00 | 0.00 | 0.00 | 89 | 1010.5 |
| 20260506072505 | 56 | 74 | 4.3 | 8.7 | 0.00 | 0.00 | 0.00 | 89 | 1010.4 |
| 20260506072005 | 56 | 67 | 2.6 | 8.7 | 0.00 | 0.00 | 0.00 | 89 | 1010.5 |
| 20260506071503 | 56 | 69 | 1.7 | 7.0 | 0.00 | 0.00 | 0.00 | 88 | 1010.5 |
| 20260506071002 | 56 | 61 | 1.7 | 6.1 | 0.00 | 0.00 | 0.00 | 88 | 1010.5 |
| 20260506070502 | 56 | 94 | 0.9 | 6.1 | 0.00 | 0.00 | 0.00 | 88 | 1010.5 |
| 20260506070228 | 56 | 79 | 0.0 | 1.7 | 0.00 | 0.00 | 0.00 | 88 | 1010.5 |
| 20260506062501 | 57 | 69 | 2.6 | 7.0 | 0.00 | 0.00 | 0.00 | 87 | 1010.4 |
| 20260506062003 | 57 | 106 | 1.7 | 9.6 | 0.00 | 0.00 | 0.00 | 87 | 1010.6 |
| 20260506061501 | 57 | 93 | 1.7 | 9.6 | 0.00 | 0.00 | 0.00 | 86 | 1010.5 |
| 20260506061003 | 58 | 103 | 3.5 | 13.0 | 0.00 | 0.00 | 0.00 | 86 | 1010.5 |
| 20260506060503 | 58 | 94 | 4.3 | 13.0 | 0.00 | 0.00 | 0.00 | 86 | 1010.5 |
| 20260506051001 | 58 | 81 | 5.2 | 10.4 | 0.00 | 0.00 | 0.00 | 84 | 1010.7 |
| 20260506050733 | 58 | 61 | 7.0 | 10.4 | 0.00 | 0.00 | 0.00 | 84 | 1010.9 |
| 20260506050222 | 58 | 89 | 7.0 | 10.4 | 0.00 | 0.00 | 0.00 | 84 | 1010.8 |
| 20260506045000 | 58 | 74 | 2.6 | 7.0 | 0.00 | 0.00 | 0.00 | 85 | 1010.8 |
| 20260506044459 | 58 | 91 | 1.7 | 8.7 | 0.00 | 0.00 | 0.00 | 85 | 1010.9 |
| 20260506043959 | 58 | 111 | 1.7 | 8.7 | 0.00 | 0.00 | 0.00 | 85 | 1010.9 |
| 20260506043457 | 58 | 93 | 4.3 | 13.9 | 0.00 | 0.00 | 0.00 | 84 | 1010.9 |
| 20260506042958 | 58 | 90 | 7.8 | 13.9 | 0.00 | 0.00 | 0.00 | 84 | 1011.0 |
| 20260506042458 | 58 | 95 | 7.8 | 13.9 | 0.00 | 0.00 | 0.00 | 84 | 1010.9 |
| 20260506041957 | 59 | 61 | 7.0 | 13.9 | 0.00 | 0.00 | 0.00 | 84 | 1011.0 |
| 20260506041457 | 58 | 93 | 5.2 | 12.2 | 0.00 | 0.00 | 0.00 | 85 | 1011.1 |
| 20260506040959 | 58 | 79 | 3.5 | 8.7 | 0.00 | 0.00 | 0.00 | 85 | 1011.0 |
| 20260506040451 | 58 | 92 | 2.6 | 7.0 | 0.00 | 0.00 | 0.00 | 85 | 1011.0 |
| 20260506040204 | 58 | 103 | 2.6 | 7.8 | 0.00 | 0.00 | 0.00 | 85 | 1011.0 |
| 20260506035439 | 58 | 92 | 2.6 | 7.8 | 0.00 | 0.00 | 0.00 | 85 | 1011.0 |
| 20260506035158 | 58 | 78 | 2.6 | 10.4 | 0.00 | 0.00 | 0.00 | 85 | 1011.0 |
| 20260506034427 | 58 | 106 | 3.5 | 10.4 | 0.00 | 0.00 | 0.00 | 85 | 1011.0 |
| 20260506033921 | 58 | 98 | 4.3 | 11.3 | 0.00 | 0.00 | 0.00 | 84 | 1010.9 |
| 20260506033415 | 59 | 79 | 6.1 | 11.3 | 0.00 | 0.00 | 0.00 | 84 | 1010.9 |
| 20260506032909 | 59 | 65 | 5.2 | 10.4 | 0.00 | 0.00 | 0.00 | 84 | 1010.8 |
| 20260506032627 | 59 | 69 | 4.3 | 10.4 | 0.00 | 0.00 | 0.00 | 83 | 1010.7 |
| 20260506031857 | 59 | 93 | 3.5 | 9.6 | 0.00 | 0.00 | 0.00 | 83 | 1010.8 |
| 20260506031617 | 59 | 100 | 2.6 | 7.8 | 0.00 | 0.00 | 0.00 | 83 | 1010.9 |
| 20260506030845 | 58 | 112 | 2.6 | 7.8 | 0.00 | 0.00 | 0.00 | 83 | 1010.8 |
| 20260506030338 | 58 | 154 | 1.7 | 7.0 | 0.00 | 0.00 | 0.00 | 84 | 1010.6 |
| 20260506025833 | 58 | 104 | 3.5 | 9.6 | 0.00 | 0.00 | 0.00 | 84 | 1010.4 |
| 20260506025327 | 58 | 109 | 4.3 | 11.3 | 0.00 | 0.00 | 0.00 | 83 | 1010.4 |
| 20260506025043 | 58 | 79 | 5.2 | 11.3 | 0.00 | 0.00 | 0.00 | 83 | 1010.4 |
| 20260506024315 | 58 | 57 | 6.1 | 10.4 | 0.00 | 0.00 | 0.00 | 82 | 1010.4 |
| 20260506023808 | 58 | 72 | 7.0 | 11.3 | 0.00 | 0.00 | 0.00 | 82 | 1010.5 |
| 20260506023303 | 58 | 76 | 10.4 | 18.2 | 0.00 | 0.00 | 0.00 | 81 | 1010.4 |
| 20260506022757 | 59 | 66 | 14.8 | 22.6 | 0.00 | 0.00 | 0.00 | 80 | 1010.4 |
| 20260506022251 | 59 | 79 | 18.2 | 22.6 | 0.00 | 0.00 | 0.00 | 80 | 1010.3 |
| 20260506021744 | 59 | 67 | 17.4 | 22.6 | 0.00 | 0.00 | 0.00 | 80 | 1010.2 |
| 20260506021240 | 59 | 69 | 15.6 | 21.7 | 0.00 | 0.00 | 0.00 | 80 | 1010.1 |
| 20260506021040 | 59 | 72 | 16.5 | 20.9 | 0.00 | 0.00 | 0.00 | 80 | 1010.1 |
| 20260506015722 | 60 | 78 | 17.4 | 22.6 | 0.00 | 0.00 | 0.00 | 78 | 1010.0 |
| 20260506015216 | 60 | 70 | 14.8 | 21.7 | 0.00 | 0.00 | 0.00 | 79 | 1010.0 |
| 20260506014939 | 60 | 69 | 11.3 | 21.7 | 0.00 | 0.00 | 0.00 | 79 | 1009.8 |
| 20260506014202 | 59 | 75 | 6.1 | 13.9 | 0.00 | 0.00 | 0.00 | 80 | 1009.8 |
| 20260506013700 | 59 | 49 | 2.6 | 9.6 | 0.00 | 0.00 | 0.00 | 80 | 1009.7 |
| 20260506013412 | 59 | 98 | 1.7 | 6.1 | 0.00 | 0.00 | 0.00 | 79 | 1009.8 |
| 20260506012645 | 59 | 124 | 0.9 | 5.2 | 0.00 | 0.00 | 0.00 | 79 | 1009.8 |
| 20260506012138 | 59 | 102 | 1.7 | 6.1 | 0.00 | 0.00 | 0.00 | 79 | 1009.8 |
| 20260506011633 | 60 | 125 | 2.6 | 6.1 | 0.00 | 0.00 | 0.00 | 79 | 1009.8 |
| 20260506011130 | 59 | 96 | 1.7 | 6.1 | 0.00 | 0.00 | 0.00 | 79 | 1009.8 |
| 20260506010621 | 59 | 113 | 1.7 | 6.1 | 0.00 | 0.00 | 0.00 | 79 | 1009.6 |
| 20260506010115 | 59 | 107 | 1.7 | 7.0 | 0.00 | 0.00 | 0.00 | 79 | 1009.5 |
| 20260506005610 | 59 | 107 | 2.6 | 7.8 | 0.00 | 0.00 | 0.00 | 79 | 1009.3 |
| 20260506005102 | 59 | 103 | 2.6 | 7.8 | 0.00 | 0.00 | 0.00 | 79 | 1009.2 |
| 20260506004557 | 59 | 113 | 2.6 | 9.6 | 0.00 | 0.00 | 0.00 | 80 | 1009.3 |
| 20260506004051 | 59 | 81 | 1.7 | 9.6 | 0.00 | 0.00 | 0.00 | 81 | 1009.2 |
| 20260506003545 | 59 | 100 | 0.9 | 7.0 | 0.00 | 0.00 | 0.00 | 81 | 1009.2 |
| 20260506003302 | 58 | 136 | 0.9 | 3.5 | 0.00 | 0.00 | 0.00 | 80 | 1009.2 |
| 20260506002533 | 59 | 169 | 1.7 | 3.5 | 0.00 | 0.00 | 0.00 | 80 | 1009.1 |
| 20260506002028 | 59 | 144 | 1.7 | 4.3 | 0.00 | 0.00 | 0.00 | 80 | 1008.9 |
| 20260506001521 | 58 | 147 | 1.7 | 4.3 | 0.00 | 0.00 | 0.00 | 80 | 1008.8 |
| 20260506001015 | 58 | 159 | 1.7 | 3.5 | 0.00 | 0.00 | 0.00 | 80 | 1008.6 |
| 20260506000511 | 58 | 159 | 1.7 | 3.5 | 0.00 | 0.00 | 0.00 | 80 | 1008.4 |
| 20260506000003 | 58 | 157 | 0.9 | 5.2 | 0.00 | 0.00 | 0.00 | 81 | 1008.3 |
| 20260505235501 | 58 | 95 | 1.7 | 7.0 | 0.00 | 0.00 | 0.00 | 80 | 1008.2 |
| 20260505234959 | 58 | 121 | 1.7 | 7.0 | 0.00 | 0.00 | 0.00 | 80 | 1008.1 |
| 20260505234500 | 59 | 86 | 4.3 | 11.3 | 0.00 | 0.00 | 0.00 | 80 | 1008.1 |
| 20260505233956 | 59 | 79 | 8.7 | 16.5 | 0.00 | 0.00 | 0.00 | 79 | 1008.1 |
| 20260505233719 | 59 | 76 | 13.0 | 19.1 | 0.00 | 0.00 | 0.00 | 79 | 1008.1 |
| 20260505232955 | 60 | 61 | 13.0 | 19.1 | 0.00 | 0.00 | 0.00 | 78 | 1008.1 |
| 20260505232457 | 60 | 63 | 8.7 | 19.1 | 0.00 | 0.00 | 0.00 | 77 | 1008.3 |
| 20260505231955 | 60 | 44 | 3.5 | 10.4 | 0.00 | 0.00 | 0.00 | 76 | 1008.3 |
| 20260505231457 | 61 | 69 | 1.7 | 6.1 | 0.00 | 0.00 | 0.00 | 74 | 1008.2 |
| 20260505230957 | 62 | 123 | 2.6 | 11.3 | 0.00 | 0.00 | 0.00 | 73 | 1008.3 |
| 20260505230458 | 62 | 76 | 3.5 | 11.3 | 0.00 | 0.00 | 0.00 | 73 | 1008.1 |
| 20260505225957 | 62 | 107 | 4.3 | 19.1 | 0.00 | 0.00 | 0.00 | 72 | 1008.2 |
| 20260505225717 | 63 | 56 | 5.2 | 19.1 | 0.00 | 0.00 | 0.00 | 71 | 1008.4 |
| 20260505224957 | 63 | 103 | 8.7 | 19.1 | 0.00 | 0.00 | 0.00 | 70 | 1008.5 |
| 20260505224454 | 64 | 80 | 10.4 | 19.1 | 0.00 | 0.00 | 0.00 | 70 | 1008.4 |
| 20260505223955 | 64 | 69 | 12.2 | 20.9 | 0.00 | 0.00 | 0.00 | 71 | 1008.5 |
| 20260505223451 | 64 | 13 | 12.2 | 20.9 | 0.00 | 0.00 | 0.00 | 70 | 1008.5 |
| 20260505222951 | 63 | 101 | 12.2 | 22.6 | 0.00 | 0.00 | 0.00 | 71 | 1008.5 |
| 20260505222452 | 64 | 55 | 12.2 | 22.6 | 0.00 | 0.00 | 0.00 | 70 | 1008.4 |
| 20260505221950 | 63 | 51 | 10.4 | 16.5 | 0.00 | 0.00 | 0.00 | 72 | 1008.4 |
| 20260505221450 | 64 | 78 | 6.1 | 16.5 | 0.00 | 0.00 | 0.00 | 71 | 1008.3 |
| 20260505221212 | 63 | 88 | 4.3 | 13.9 | 0.00 | 0.00 | 0.00 | 73 | 1008.3 |
| 20260505220451 | 63 | 77 | 4.3 | 13.0 | 0.00 | 0.00 | 0.00 | 73 | 1008.1 |
| 20260505215948 | 63 | 79 | 6.1 | 13.0 | 0.00 | 0.00 | 0.00 | 73 | 1008.3 |
| 20260505215447 | 63 | 51 | 6.1 | 12.2 | 0.00 | 0.00 | 0.00 | 73 | 1008.3 |
| 20260505214949 | 63 | 81 | 7.8 | 14.8 | 0.00 | 0.00 | 0.00 | 74 | 1008.2 |
| 20260505214443 | 63 | 75 | 7.8 | 14.8 | 0.00 | 0.00 | 0.00 | 73 | 1008.1 |
| 20260505213945 | 63 | 49 | 6.1 | 13.9 | 0.00 | 0.00 | 0.00 | 73 | 1008.2 |
| 20260505213444 | 63 | 49 | 6.1 | 9.6 | 0.00 | 0.00 | 0.00 | 74 | 1008.2 |
| 20260505212943 | 63 | 80 | 5.2 | 10.4 | 0.00 | 0.00 | 0.00 | 73 | 1008.2 |
| 20260505212445 | 62 | 69 | 2.6 | 10.4 | 0.00 | 0.00 | 0.00 | 75 | 1008.3 |
| 20260505211943 | 62 | 66 | 1.7 | 4.3 | 0.00 | 0.00 | 0.00 | 75 | 1008.4 |
| 20260505211446 | 62 | 64 | 0.9 | 4.3 | 0.00 | 0.00 | 0.00 | 74 | 1008.3 |
| 20260505210943 | 61 | 141 | 0.9 | 5.2 | 0.00 | 0.00 | 0.00 | 77 | 1008.2 |
| 20260505210445 | 61 | 207 | 1.7 | 5.2 | 0.00 | 0.00 | 0.00 | 76 | 1008.1 |
| 20260505210206 | 62 | 105 | 2.6 | 5.2 | 0.00 | 0.00 | 0.00 | 76 | 1008.0 |
| 20260505205445 | 62 | 309 | 1.7 | 5.2 | 0.00 | 0.00 | 0.00 | 76 | 1008.0 |
| 20260505204945 | 62 | 71 | 2.6 | 7.0 | 0.00 | 0.00 | 0.00 | 77 | 1008.0 |
| 20260505204443 | 61 | 38 | 2.6 | 7.0 | 0.00 | 0.00 | 0.00 | 77 | 1007.9 |
| 20260505203942 | 61 | 300 | 1.7 | 5.2 | 0.00 | 0.00 | 0.00 | 77 | 1007.9 |
| 20260505203703 | 61 | 259 | 1.7 | 4.3 | 0.00 | 0.00 | 0.00 | 78 | 1008.0 |
| 20260505202940 | 60 | 181 | 0.9 | 3.5 | 0.00 | 0.00 | 0.00 | 79 | 1008.0 |
| 20260505202442 | 60 | 181 | 0.9 | 3.5 | 0.00 | 0.00 | 0.00 | 80 | 1008.1 |
| 20260505202209 | 60 | 217 | 0.9 | 3.5 | 0.00 | 0.00 | 0.00 | 81 | 1008.1 |
| 20260505201437 | 60 | 151 | 1.7 | 3.5 | 0.00 | 0.00 | 0.00 | 80 | 1008.1 |
| 20260505201204 | 60 | 73 | 3.5 | 6.1 | 0.00 | 0.00 | 0.00 | 79 | 1008.2 |
| 20260505200436 | 61 | 336 | 5.2 | 13.0 | 0.00 | 0.00 | 0.00 | 78 | 1008.2 |
| 20260505195936 | 61 | 325 | 9.6 | 23.5 | 0.00 | 0.00 | 0.00 | 76 | 1008.3 |
| 20260505195648 | 62 | 53 | 11.3 | 23.5 | 0.00 | 0.00 | 0.00 | 75 | 1008.3 |
| 20260505194925 | 62 | 59 | 9.6 | 16.5 | 0.00 | 0.00 | 0.00 | 76 | 1008.4 |
| 20260505194418 | 62 | 49 | 7.8 | 13.0 | 0.00 | 0.00 | 0.00 | 76 | 1008.5 |
| 20260505194136 | 62 | 65 | 4.3 | 12.2 | 0.00 | 0.00 | 0.00 | 76 | 1008.6 |
| 20260505193406 | 62 | 46 | 1.7 | 5.2 | 0.00 | 0.00 | 0.00 | 77 | 1008.7 |
| 20260505192900 | 62 | 76 | 2.6 | 7.0 | 0.00 | 0.00 | 0.00 | 78 | 1008.7 |